SL-16 DEB, 22617

Orbit data source: Space-Track

SL-16 DEB, 22617 is space debris in LEO originally from a launch on Fri, 26 Mar 1993 UTC launched from the Tyuratam Missile And Space Complex (TTMTR). Debris objects in space refer to the collection of defunct objects orbiting the Earth. Examples of debris include non-operational satellites, rocket bodies, and fragments generated from explosions, collisions, or faulty payload assembly.

Loading next visibility...
Identifier
22617, 1993-016AB
Orbit
LEO
Country
Flag of CISCIS
Related business
Manufacturer
Unknown
Mission
Spacecraft
Bus & Motor
Unknown
Mass
Unknown
Launch date (UTC)
1993-03-26 (32 years ago)
Launch vehicle
Unknown
Launch site
Tyuratam Missile And Space Complex (TTMTR)
Object type
Payload
Rocket body
Debris
Shape & HBR
Unknown
Radar Cross Section
Small (<0.1 m²)

Expand to show TLE details & history
Last TLE update: 19 hours ago

TLE from 19 hours ago
0 SL-16 DEB
1 22617U 93016AB  25260.11475122  .00000533  00000-0  42043-3 0  9992
2 22617  70.9984 295.3030 0133405 190.3744 201.6731 13.92014931642514
Epoch: 2025-09-17T02:45Z
TLE epoch observation values (Epoch: 2025-09-17T02:45:14.505Z)
Latitude
29.65502°
Longitude
-91.05518°
Altitude
1,015.427 km
Speed
7.301 km/s
True Right ascension
20h 26m 12s
True Declination
29° 30' 45"
Sunlit
Object was in full shadow at epoch
Visualization orbit readout
Latitude
Unknown
Longitude
Unknown
Altitude
Unknown
Speed
Unknown
Apparent Right ascension
Unknown
Apparent Declination
Unknown
Sunlit
N/A
Visualization observer readout
Local Sidereal Time
14:08:27
Azimuth
Unknown
Elevation
Unknown
Doppler factor
Unknown
Orbital elements
Apogee altitude
1,016.88 km
Perigee altitude
822.171 km
Semi-major axis
7,297.662 km
Eccentricity
0.01334
Inclination
70.9984°
RAAN
295.303°
Arg. of periapsis
190.3744°
True anomaly
201.11716°
Mean anomaly
201.6731°
Eccentric anomaly
201.39428°
Mean motion
3.48151 °/min
Orbital period
103.4 mins
BSTAR
0.00042043
Loading maneuver chart data...
Computing Atmospheric mass density...
Loading historical data...
Loading historical data...
Loading historical data...
Loading historical data...
Loading historical data...
Loading historical data...
Loading historical data...

Documentation

Showing up to 5 results
|